Time,TemperatureF,DewpointF,PressureIn,WindDirection,WindDirectionDegrees,WindSpeedMPH,WindSpeedGustMPH,Humidity,HourlyPrecipIn,Conditions,Clouds,dailyrainin,SoftwareType,DateUTC
2013-05-30 00:00:00,52.6,52.1,29.99,SE,145,0.0,0.0,98,0.00,,,0.00,Wunderground v.1.15,2013-05-30 04:00:00,
2013-05-30 00:05:00,52.6,52.1,29.99,SE,145,0.0,0.0,98,0.00,,,0.00,Wunderground v.1.15,2013-05-30 04:05:00,
2013-05-30 00:10:00,52.5,52.0,29.98,SE,146,0.0,0.0,98,0.00,,,0.00,Wunderground v.1.15,2013-05-30 04:10:00,
2013-05-30 00:15:00,52.4,51.9,29.98,SE,145,0.0,0.0,98,0.20,,,0.02,Wunderground v.1.15,2013-05-30 04:15:00,
2013-05-30 00:20:00,52.4,51.9,29.98,SE,145,0.0,0.0,98,0.07,,,0.02,Wunderground v.1.15,2013-05-30 04:20:00,
2013-05-30 00:25:00,52.5,52.0,29.98,SE,145,0.0,0.0,98,0.05,,,0.02,Wunderground v.1.15,2013-05-30 04:25:00,
2013-05-30 00:30:00,52.5,52.0,29.97,SE,145,0.0,0.0,98,0.00,,,0.02,Wunderground v.1.15,2013-05-30 04:30:00,
2013-05-30 00:35:00,52.4,51.9,29.97,SE,145,0.0,0.0,98,0.00,,,0.02,Wunderground v.1.15,2013-05-30 04:35:00,
2013-05-30 00:45:00,52.5,52.0,29.98,SE,145,0.0,0.0,98,0.00,,,0.02,Wunderground v.1.15,2013-05-30 04:45:00,
2013-05-30 00:50:00,52.6,52.1,29.98,SE,144,0.0,0.0,98,0.00,,,0.02,Wunderground v.1.15,2013-05-30 04:50:00,
2013-05-30 00:55:00,52.6,52.1,29.99,SE,145,0.0,0.0,98,0.00,,,0.02,Wunderground v.1.15,2013-05-30 04:55:00,
2013-05-30 01:00:00,52.6,52.1,29.98,SE,146,0.0,0.0,98,0.00,,,0.02,Wunderground v.1.15,2013-05-30 05:00:00,
2013-05-30 01:05:00,52.5,52.0,29.98,SE,145,0.0,0.0,98,0.00,,,0.02,Wunderground v.1.15,2013-05-30 05:05:00,
2013-05-30 01:10:00,52.5,52.0,29.98,SE,145,0.0,0.0,98,0.00,,,0.02,Wunderground v.1.15,2013-05-30 05:10:00,
2013-05-30 01:15:00,52.5,52.0,29.98,SE,145,0.0,0.0,98,0.00,,,0.02,Wunderground v.1.15,2013-05-30 05:15:00,
2013-05-30 01:20:00,52.5,52.0,29.98,SE,145,0.0,0.0,98,0.00,,,0.02,Wunderground v.1.15,2013-05-30 05:20:00,
2013-05-30 01:25:00,52.5,52.0,29.98,SE,145,0.0,0.0,98,0.00,,,0.02,Wunderground v.1.15,2013-05-30 05:25:00,
2013-05-30 01:30:00,52.5,52.0,29.98,SE,145,0.0,0.0,98,0.00,,,0.02,Wunderground v.1.15,2013-05-30 05:30:00,
2013-05-30 01:35:00,52.5,52.0,29.97,SE,145,0.0,0.0,98,0.00,,,0.02,Wunderground v.1.15,2013-05-30 05:35:00,
2013-05-30 01:40:00,52.6,52.1,29.97,SE,145,0.0,0.0,98,0.00,,,0.02,Wunderground v.1.15,2013-05-30 05:40:00,
2013-05-30 01:45:00,52.6,52.1,29.97,SE,145,0.0,0.0,98,0.00,,,0.02,Wunderground v.1.15,2013-05-30 05:45:00,
2013-05-30 01:50:00,52.7,52.2,29.98,SE,145,0.0,0.0,98,0.00,,,0.02,Wunderground v.1.15,2013-05-30 05:50:00,
2013-05-30 02:00:00,52.7,52.2,29.97,SE,145,0.0,0.0,98,0.00,,,0.02,Wunderground v.1.15,2013-05-30 06:00:00,
2013-05-30 02:05:00,52.7,52.2,29.98,SE,145,0.0,0.0,98,0.00,,,0.02,Wunderground v.1.15,2013-05-30 06:05:00,
2013-05-30 02:10:00,52.8,52.3,29.97,SE,145,0.0,0.0,98,0.00,,,0.02,Wunderground v.1.15,2013-05-30 06:10:00,
2013-05-30 02:15:00,52.8,52.3,29.97,SE,145,0.0,0.0,98,0.00,,,0.02,Wunderground v.1.15,2013-05-30 06:15:00,
2013-05-30 02:20:00,52.9,52.4,29.98,SE,145,0.0,0.0,98,0.00,,,0.02,Wunderground v.1.15,2013-05-30 06:20:00,
2013-05-30 02:30:00,53.0,52.5,29.98,SE,145,0.0,0.0,98,0.00,,,0.02,Wunderground v.1.15,2013-05-30 06:30:00,
2013-05-30 02:35:00,53.0,52.5,29.98,SE,146,0.0,0.0,98,0.00,,,0.02,Wunderground v.1.15,2013-05-30 06:35:00,
2013-05-30 02:40:00,53.1,52.6,29.97,SE,145,0.0,0.0,98,0.00,,,0.02,Wunderground v.1.15,2013-05-30 06:40:00,
2013-05-30 02:45:00,53.1,52.6,29.97,SE,146,0.0,0.0,98,0.00,,,0.02,Wunderground v.1.15,2013-05-30 06:45:00,
2013-05-30 02:50:00,53.2,52.7,29.97,SE,145,0.0,0.0,98,0.00,,,0.02,Wunderground v.1.15,2013-05-30 06:50:00,
2013-05-30 02:55:00,53.2,52.7,29.97,SE,145,0.0,0.0,98,0.00,,,0.02,Wunderground v.1.15,2013-05-30 06:55:00,
2013-05-30 03:00:00,53.2,52.7,29.97,SE,145,0.0,0.0,98,0.00,,,0.02,Wunderground v.1.15,2013-05-30 07:00:00,
2013-05-30 03:10:00,53.2,52.7,29.96,SSE,147,0.0,0.0,98,0.00,,,0.02,Wunderground v.1.15,2013-05-30 07:10:00,
2013-05-30 03:20:00,53.2,52.7,29.97,SE,146,0.0,0.0,98,0.00,,,0.02,Wunderground v.1.15,2013-05-30 07:20:00,
2013-05-30 03:25:00,53.2,52.7,29.97,SE,146,0.0,0.0,98,0.00,,,0.02,Wunderground v.1.15,2013-05-30 07:25:00,
2013-05-30 03:30:00,53.3,52.8,29.97,SE,146,0.0,0.0,98,0.00,,,0.02,Wunderground v.1.15,2013-05-30 07:30:00,
2013-05-30 03:35:00,53.3,52.8,29.97,SE,146,0.0,0.0,98,0.00,,,0.02,Wunderground v.1.15,2013-05-30 07:35:00,
2013-05-30 03:45:00,53.3,52.8,29.97,SE,146,0.0,0.0,98,0.00,,,0.02,Wunderground v.1.15,2013-05-30 07:45:00,
2013-05-30 03:50:00,53.2,52.7,29.96,SE,146,0.0,0.0,98,0.00,,,0.02,Wunderground v.1.15,2013-05-30 07:50:00,
2013-05-30 03:55:00,53.2,52.7,29.97,SE,146,0.0,0.0,98,0.00,,,0.02,Wunderground v.1.15,2013-05-30 07:55:00,
2013-05-30 04:00:00,53.2,52.7,29.96,SE,146,0.0,0.0,98,0.00,,,0.02,Wunderground v.1.15,2013-05-30 08:00:00,
2013-05-30 04:05:00,53.2,52.7,29.96,SE,146,0.0,1.0,98,0.00,,,0.02,Wunderground v.1.15,2013-05-30 08:05:00,
2013-05-30 04:10:00,53.2,52.7,29.97,SE,146,0.0,1.0,98,0.00,,,0.02,Wunderground v.1.15,2013-05-30 08:10:00,
2013-05-30 04:15:00,53.2,52.7,29.96,SE,146,0.0,1.0,98,0.00,,,0.02,Wunderground v.1.15,2013-05-30 08:15:00,
2013-05-30 04:20:00,53.3,52.8,29.95,SSE,147,0.0,1.0,98,0.00,,,0.02,Wunderground v.1.15,2013-05-30 08:20:00,
2013-05-30 04:30:00,53.4,52.8,29.96,SSE,147,0.0,0.0,98,0.00,,,0.02,Wunderground v.1.15,2013-05-30 08:30:00,
2013-05-30 04:35:00,53.4,52.8,29.96,SE,146,0.0,0.0,98,0.00,,,0.02,Wunderground v.1.15,2013-05-30 08:35:00,
2013-05-30 04:40:00,53.5,52.9,29.96,SE,146,0.0,0.0,98,0.00,,,0.02,Wunderground v.1.15,2013-05-30 08:40:00,
2013-05-30 04:50:00,53.5,52.9,29.96,SE,146,0.0,0.0,98,0.00,,,0.02,Wunderground v.1.15,2013-05-30 08:50:00,
2013-05-30 04:55:00,53.5,52.9,29.96,SSE,147,0.0,0.0,98,0.00,,,0.02,Wunderground v.1.15,2013-05-30 08:55:00,
2013-05-30 05:00:00,53.6,53.0,29.97,SE,146,0.0,0.0,98,0.00,,,0.02,Wunderground v.1.15,2013-05-30 09:00:00,
2013-05-30 05:05:00,53.7,53.1,29.97,SE,146,0.0,0.0,98,0.00,,,0.02,Wunderground v.1.15,2013-05-30 09:05:00,
2013-05-30 05:10:00,53.6,53.0,29.96,SE,146,0.0,0.0,98,0.00,,,0.02,Wunderground v.1.15,2013-05-30 09:10:00,
2013-05-30 05:15:00,53.8,53.2,29.96,SE,146,0.0,0.0,98,0.00,,,0.02,Wunderground v.1.15,2013-05-30 09:15:00,
2013-05-30 05:20:00,54.0,53.4,29.97,SSE,147,0.0,0.0,98,0.00,,,0.02,Wunderground v.1.15,2013-05-30 09:20:00,
2013-05-30 05:30:00,54.1,53.5,29.97,SE,144,0.0,0.0,98,0.00,,,0.02,Wunderground v.1.15,2013-05-30 09:30:00,
2013-05-30 05:35:00,54.3,53.7,29.97,SE,144,0.0,0.0,98,0.00,,,0.02,Wunderground v.1.15,2013-05-30 09:35:00,
2013-05-30 05:40:00,54.6,54.0,29.97,SE,143,0.0,0.0,98,0.00,,,0.02,Wunderground v.1.15,2013-05-30 09:40:00,
2013-05-30 05:45:00,54.7,54.1,29.97,SE,144,0.0,0.0,98,0.00,,,0.02,Wunderground v.1.15,2013-05-30 09:45:00,
2013-05-30 05:55:00,55.1,54.5,29.97,SE,143,0.0,0.0,98,0.00,,,0.02,Wunderground v.1.15,2013-05-30 09:55:00,
2013-05-30 06:00:00,55.3,54.7,29.97,SE,144,0.0,0.0,98,0.00,,,0.02,Wunderground v.1.15,2013-05-30 10:00:00,
2013-05-30 06:05:00,55.5,54.9,29.97,SE,144,0.0,0.0,98,0.00,,,0.02,Wunderground v.1.15,2013-05-30 10:05:00,
2013-05-30 06:10:00,55.8,55.2,29.97,SE,143,0.0,0.0,98,0.00,,,0.02,Wunderground v.1.15,2013-05-30 10:10:00,
2013-05-30 06:15:00,56.0,55.4,29.97,SE,144,0.0,0.0,98,0.00,,,0.02,Wunderground v.1.15,2013-05-30 10:15:00,
2013-05-30 06:20:00,56.2,55.6,29.97,SE,144,0.0,0.0,98,0.00,,,0.02,Wunderground v.1.15,2013-05-30 10:20:00,
2013-05-30 06:30:00,56.4,55.8,29.98,SE,143,0.0,0.0,98,0.00,,,0.02,Wunderground v.1.15,2013-05-30 10:30:00,
2013-05-30 06:35:00,56.5,55.9,29.98,SE,144,0.0,0.0,98,0.00,,,0.02,Wunderground v.1.15,2013-05-30 10:35:00,
2013-05-30 06:40:00,56.6,56.0,29.98,SE,131,0.0,0.0,98,0.00,,,0.02,Wunderground v.1.15,2013-05-30 10:40:00,
2013-05-30 06:45:00,56.2,55.6,29.99,SE,146,0.0,0.0,98,0.00,,,0.02,Wunderground v.1.15,2013-05-30 10:45:00,
2013-05-30 06:50:00,55.9,55.3,29.99,SE,132,1.0,4.0,98,0.00,,,0.02,Wunderground v.1.15,2013-05-30 10:50:00,
2013-05-30 07:00:00,55.1,54.5,29.99,SE,131,2.0,2.0,98,0.00,,,0.02,Wunderground v.1.15,2013-05-30 11:00:00,
2013-05-30 07:05:00,55.2,54.6,30.00,SE,136,1.0,2.0,98,0.00,,,0.02,Wunderground v.1.15,2013-05-30 11:05:00,
2013-05-30 07:10:00,55.4,54.8,30.00,SE,139,0.0,1.0,98,0.00,,,0.02,Wunderground v.1.15,2013-05-30 11:10:00,
2013-05-30 07:15:00,55.7,55.1,30.00,SE,142,0.0,1.0,98,0.00,,,0.02,Wunderground v.1.15,2013-05-30 11:15:00,
2013-05-30 07:20:00,56.0,55.4,30.00,SE,142,0.0,1.0,98,0.00,,,0.02,Wunderground v.1.15,2013-05-30 11:20:00,
2013-05-30 07:25:00,56.4,55.8,29.99,SE,143,0.0,1.0,98,0.00,,,0.02,Wunderground v.1.15,2013-05-30 11:25:00,
2013-05-30 07:30:00,56.9,56.3,29.99,SE,142,0.0,0.0,98,0.00,,,0.02,Wunderground v.1.15,2013-05-30 11:30:00,
2013-05-30 07:35:00,57.4,56.8,30.00,SE,142,0.0,0.0,98,0.00,,,0.02,Wunderground v.1.15,2013-05-30 11:35:00,
2013-05-30 07:40:00,57.9,57.3,30.00,SE,142,0.0,0.0,98,0.00,,,0.02,Wunderground v.1.15,2013-05-30 11:40:00,
2013-05-30 07:45:00,58.2,57.6,30.00,South,181,0.0,0.0,98,0.00,,,0.02,Wunderground v.1.15,2013-05-30 11:45:00,
2013-05-30 07:50:00,58.6,58.0,30.00,SSE,155,0.0,0.0,98,0.00,,,0.02,Wunderground v.1.15,2013-05-30 11:50:00,
2013-05-30 07:55:00,58.9,58.3,30.00,SSE,155,0.0,1.0,98,0.00,,,0.02,Wunderground v.1.15,2013-05-30 11:55:00,
2013-05-30 08:05:00,59.4,58.8,30.00,SE,144,0.0,7.0,98,0.00,,,0.02,Wunderground v.1.15,2013-05-30 12:05:00,
2013-05-30 08:10:00,59.6,59.0,30.00,SE,143,0.0,7.0,98,0.00,,,0.02,Wunderground v.1.15,2013-05-30 12:10:00,
2013-05-30 08:15:00,59.8,59.2,30.00,SE,144,0.0,7.0,98,0.00,,,0.02,Wunderground v.1.15,2013-05-30 12:15:00,
2013-05-30 08:20:00,60.1,59.5,30.00,South,187,0.0,7.0,98,0.00,,,0.02,Wunderground v.1.15,2013-05-30 12:20:00,
2013-05-30 08:25:00,60.4,59.8,30.00,South,187,0.0,7.0,98,0.00,,,0.02,Wunderground v.1.15,2013-05-30 12:25:00,
2013-05-30 08:35:00,60.9,60.3,30.00,SE,126,0.0,1.0,98,0.00,,,0.02,Wunderground v.1.15,2013-05-30 12:35:00,
2013-05-30 08:40:00,61.0,60.4,30.01,SE,126,0.0,0.0,98,0.00,,,0.02,Wunderground v.1.15,2013-05-30 12:40:00,
2013-05-30 08:45:00,61.3,60.7,30.00,SE,126,0.0,0.0,98,0.00,,,0.02,Wunderground v.1.15,2013-05-30 12:45:00,
2013-05-30 08:50:00,61.6,61.0,30.00,SE,139,0.0,0.0,98,0.00,,,0.02,Wunderground v.1.15,2013-05-30 12:50:00,
2013-05-30 08:55:00,61.8,61.2,30.01,SE,145,0.0,0.0,98,0.00,,,0.02,Wunderground v.1.15,2013-05-30 12:55:00,
2013-05-30 09:00:00,62.1,61.5,30.00,SE,146,0.0,0.0,98,0.00,,,0.02,Wunderground v.1.15,2013-05-30 13:00:00,
2013-05-30 09:10:00,62.8,62.2,30.00,South,179,0.0,1.0,98,0.00,,,0.02,Wunderground v.1.15,2013-05-30 13:10:00,
2013-05-30 09:15:00,63.1,62.5,30.00,South,179,0.0,1.0,98,0.00,,,0.02,Wunderground v.1.15,2013-05-30 13:15:00,
2013-05-30 09:20:00,63.5,62.9,30.00,SE,143,0.0,1.0,98,0.00,,,0.02,Wunderground v.1.15,2013-05-30 13:20:00,
2013-05-30 09:25:00,63.8,63.2,30.00,ENE,59,0.0,1.0,98,0.00,,,0.02,Wunderground v.1.15,2013-05-30 13:25:00,
2013-05-30 09:30:00,64.1,63.5,30.01,ENE,76,0.0,1.0,98,0.00,,,0.02,Wunderground v.1.15,2013-05-30 13:30:00,
2013-05-30 09:40:00,64.7,64.1,30.01,SSE,158,0.0,0.0,98,0.00,,,0.02,Wunderground v.1.15,2013-05-30 13:40:00,
2013-05-30 09:45:00,65.3,64.7,30.01,SSE,162,0.0,0.0,98,0.00,,,0.02,Wunderground v.1.15,2013-05-30 13:45:00,
2013-05-30 09:50:00,66.0,65.4,30.01,SSE,163,0.0,0.0,98,0.00,,,0.02,Wunderground v.1.15,2013-05-30 13:50:00,
2013-05-30 09:55:00,66.6,65.7,30.01,SSE,163,0.0,0.0,97,0.00,,,0.02,Wunderground v.1.15,2013-05-30 13:55:00,
2013-05-30 10:00:00,67.0,66.1,30.01,SSE,165,0.0,0.0,97,0.00,,,0.02,Wunderground v.1.15,2013-05-30 14:00:00,
2013-05-30 10:05:00,67.6,66.1,30.00,SSE,167,0.0,2.0,95,0.00,,,0.02,Wunderground v.1.15,2013-05-30 14:05:00,
2013-05-30 10:15:00,69.2,66.8,30.01,South,188,1.0,2.0,92,0.00,,,0.02,Wunderground v.1.15,2013-05-30 14:15:00,
2013-05-30 10:20:00,69.8,67.1,30.00,SSE,163,0.0,2.0,91,0.00,,,0.02,Wunderground v.1.15,2013-05-30 14:20:00,
2013-05-30 10:25:00,70.6,66.9,30.00,SSW,195,0.0,2.0,88,0.00,,,0.02,Wunderground v.1.15,2013-05-30 14:25:00,
2013-05-30 10:30:00,71.5,68.4,30.00,South,169,0.0,0.0,90,0.00,,,0.02,Wunderground v.1.15,2013-05-30 14:30:00,
2013-05-30 10:35:00,72.0,67.9,30.01,South,188,0.0,0.0,87,0.00,,,0.02,Wunderground v.1.15,2013-05-30 14:35:00,
2013-05-30 10:45:00,73.4,68.3,30.01,SSE,150,0.0,0.0,84,0.00,,,0.02,Wunderground v.1.15,2013-05-30 14:45:00,
2013-05-30 10:50:00,74.0,67.4,30.01,South,174,0.0,0.0,80,0.00,,,0.02,Wunderground v.1.15,2013-05-30 14:50:00,
2013-05-30 10:55:00,74.3,68.4,30.00,South,174,0.0,0.0,82,0.00,,,0.02,Wunderground v.1.15,2013-05-30 14:55:00,
2013-05-30 11:00:00,75.2,68.2,30.01,SE,141,0.0,0.0,79,0.00,,,0.02,Wunderground v.1.15,2013-05-30 15:00:00,
2013-05-30 11:05:00,76.3,68.6,30.01,SSE,160,0.0,2.0,77,0.00,,,0.02,Wunderground v.1.15,2013-05-30 15:05:00,
2013-05-30 11:10:00,76.9,68.8,30.01,SSE,160,0.0,2.0,76,0.00,,,0.02,Wunderground v.1.15,2013-05-30 15:10:00,
2013-05-30 11:20:00,77.8,67.6,30.01,South,173,0.0,2.0,71,0.00,,,0.02,Wunderground v.1.15,2013-05-30 15:20:00,
2013-05-30 11:25:00,77.6,67.9,30.00,South,174,0.0,2.0,72,0.00,,,0.02,Wunderground v.1.15,2013-05-30 15:25:00,
2013-05-30 11:30:00,78.3,68.1,30.01,SE,142,0.0,0.0,71,0.00,,,0.02,Wunderground v.1.15,2013-05-30 15:30:00,
2013-05-30 11:35:00,78.7,67.7,30.00,SE,129,0.0,0.0,69,0.00,,,0.02,Wunderground v.1.15,2013-05-30 15:35:00,
2013-05-30 11:40:00,79.1,68.1,30.00,SSE,152,0.0,0.0,69,0.00,,,0.02,Wunderground v.1.15,2013-05-30 15:40:00,
2013-05-30 11:50:00,79.5,67.1,30.00,South,169,0.0,0.0,66,0.00,,,0.02,Wunderground v.1.15,2013-05-30 15:50:00,
2013-05-30 11:55:00,80.0,68.1,30.00,SSE,167,0.0,0.0,67,0.00,,,0.02,Wunderground v.1.15,2013-05-30 15:55:00,
2013-05-30 12:00:00,80.2,68.2,30.00,SSE,167,0.0,0.0,67,0.00,,,0.02,Wunderground v.1.15,2013-05-30 16:00:00,
2013-05-30 12:05:00,80.4,67.1,30.00,ESE,111,0.0,1.0,64,0.00,,,0.02,Wunderground v.1.15,2013-05-30 16:05:00,
2013-05-30 12:10:00,80.0,66.3,29.99,SE,128,0.0,2.0,63,0.00,,,0.02,Wunderground v.1.15,2013-05-30 16:10:00,
2013-05-30 12:15:00,79.0,65.3,29.99,ESE,120,1.0,4.0,63,0.00,,,0.02,Wunderground v.1.15,2013-05-30 16:15:00,
2013-05-30 12:25:00,75.8,64.9,30.00,ESE,105,2.0,2.0,69,0.00,,,0.02,Wunderground v.1.15,2013-05-30 16:25:00,
2013-05-30 12:30:00,76.0,64.7,30.00,SSE,160,1.0,1.0,68,0.00,,,0.02,Wunderground v.1.15,2013-05-30 16:30:00,
2013-05-30 12:35:00,76.1,64.8,29.99,SE,145,0.0,1.0,68,0.00,,,0.02,Wunderground v.1.15,2013-05-30 16:35:00,
2013-05-30 12:40:00,76.7,65.8,29.99,SE,126,0.0,1.0,69,0.00,,,0.02,Wunderground v.1.15,2013-05-30 16:40:00,
2013-05-30 12:45:00,77.3,65.9,29.99,ENE,68,1.0,1.0,68,0.00,,,0.02,Wunderground v.1.15,2013-05-30 16:45:00,
2013-05-30 12:55:00,76.7,64.9,29.99,SSE,156,2.0,2.0,67,0.00,,,0.02,Wunderground v.1.15,2013-05-30 16:55:00,
2013-05-30 13:00:00,76.4,65.9,29.99,SSE,165,2.0,2.0,70,0.00,,,0.02,Wunderground v.1.15,2013-05-30 17:00:00,
2013-05-30 13:05:00,76.6,66.5,29.99,ESE,121,2.0,3.0,71,0.00,,,0.02,Wunderground v.1.15,2013-05-30 17:05:00,
2013-05-30 13:10:00,77.1,67.4,29.99,SE,129,1.0,2.0,72,0.00,,,0.02,Wunderground v.1.15,2013-05-30 17:10:00,
2013-05-30 13:15:00,78.1,67.9,29.98,SE,143,1.0,2.0,71,0.00,,,0.02,Wunderground v.1.15,2013-05-30 17:15:00,
2013-05-30 13:20:00,78.9,67.4,29.98,SSE,152,1.0,2.0,68,0.00,,,0.02,Wunderground v.1.15,2013-05-30 17:20:00,
2013-05-30 13:25:00,78.3,66.4,29.98,ENE,71,1.0,2.0,67,0.00,,,0.02,Wunderground v.1.15,2013-05-30 17:25:00,
2013-05-30 13:30:00,77.7,66.3,29.98,ESE,116,1.0,2.0,68,0.00,,,0.02,Wunderground v.1.15,2013-05-30 17:30:00,
2013-05-30 13:35:00,76.5,65.1,29.98,SE,129,1.0,2.0,68,0.00,,,0.02,Wunderground v.1.15,2013-05-30 17:35:00,
2013-05-30 13:40:00,75.4,65.7,29.98,SSE,162,1.0,2.0,72,0.00,,,0.02,Wunderground v.1.15,2013-05-30 17:40:00,
2013-05-30 13:45:00,74.9,65.7,29.98,SSE,156,0.0,2.0,73,0.00,,,0.02,Wunderground v.1.15,2013-05-30 17:45:00,
2013-05-30 13:50:00,75.1,65.9,29.98,SE,140,0.0,3.0,73,0.00,,,0.02,Wunderground v.1.15,2013-05-30 17:50:00,
2013-05-30 14:00:00,75.4,64.9,29.98,SE,135,0.0,2.0,70,0.00,,,0.02,Wunderground v.1.15,2013-05-30 18:00:00,
2013-05-30 14:05:00,75.0,64.1,29.98,East,84,1.0,4.0,69,0.00,,,0.02,Wunderground v.1.15,2013-05-30 18:05:00,
2013-05-30 14:10:00,74.4,63.6,29.98,SE,140,1.0,8.0,69,0.00,,,0.02,Wunderground v.1.15,2013-05-30 18:10:00,
2013-05-30 14:15:00,73.2,62.8,29.98,East,94,2.0,8.0,70,0.00,,,0.02,Wunderground v.1.15,2013-05-30 18:15:00,
2013-05-30 14:20:00,72.2,63.1,29.98,ESE,123,3.0,3.0,73,0.00,,,0.02,Wunderground v.1.15,2013-05-30 18:20:00,
2013-05-30 14:25:00,72.3,63.9,29.97,SSE,164,2.0,3.0,75,0.00,,,0.02,Wunderground v.1.15,2013-05-30 18:25:00,
2013-05-30 14:35:00,74.2,64.6,29.97,SSE,163,1.0,2.0,72,0.00,,,0.02,Wunderground v.1.15,2013-05-30 18:35:00,
2013-05-30 14:40:00,74.5,63.7,29.97,SE,125,2.0,3.0,69,0.00,,,0.02,Wunderground v.1.15,2013-05-30 18:40:00,
2013-05-30 14:45:00,74.7,64.3,29.97,South,177,3.0,5.0,70,0.00,,,0.02,Wunderground v.1.15,2013-05-30 18:45:00,
2013-05-30 14:50:00,75.0,64.1,29.97,SSE,160,2.0,2.0,69,0.00,,,0.02,Wunderground v.1.15,2013-05-30 18:50:00,
2013-05-30 14:55:00,74.9,63.2,29.97,SE,128,3.0,3.0,67,0.00,,,0.02,Wunderground v.1.15,2013-05-30 18:55:00,
2013-05-30 15:05:00,76.3,64.5,29.97,ESE,123,1.0,6.0,67,0.00,,,0.02,Wunderground v.1.15,2013-05-30 19:05:00,
2013-05-30 15:10:00,76.9,63.8,29.97,ESE,120,0.0,6.0,64,0.00,,,0.02,Wunderground v.1.15,2013-05-30 19:10:00,
2013-05-30 15:15:00,77.2,63.6,29.97,ESE,104,1.0,6.0,63,0.00,,,0.02,Wunderground v.1.15,2013-05-30 19:15:00,
2013-05-30 15:20:00,77.2,64.5,29.97,SSE,162,1.0,1.0,65,0.00,,,0.02,Wunderground v.1.15,2013-05-30 19:20:00,
2013-05-30 15:25:00,77.1,63.5,29.97,SE,132,1.0,2.0,63,0.00,,,0.02,Wunderground v.1.15,2013-05-30 19:25:00,
2013-05-30 15:30:00,76.6,63.1,29.96,ESE,119,2.0,2.0,63,0.00,,,0.02,Wunderground v.1.15,2013-05-30 19:30:00,
2013-05-30 15:40:00,77.2,63.2,29.97,SE,129,1.0,1.0,62,0.00,,,0.02,Wunderground v.1.15,2013-05-30 19:40:00,
2013-05-30 15:45:00,77.4,62.4,29.96,South,173,2.0,2.0,60,0.00,,,0.02,Wunderground v.1.15,2013-05-30 19:45:00,
2013-05-30 15:50:00,77.8,62.3,29.96,ESE,121,1.0,3.0,59,0.00,,,0.02,Wunderground v.1.15,2013-05-30 19:50:00,
2013-05-30 15:55:00,77.6,62.1,29.96,SE,135,1.0,3.0,59,0.00,,,0.02,Wunderground v.1.15,2013-05-30 19:55:00,
2013-05-30 16:00:00,77.1,63.1,29.96,SE,141,2.0,2.0,62,0.00,,,0.02,Wunderground v.1.15,2013-05-30 20:00:00,
2013-05-30 16:10:00,76.7,63.2,29.96,SE,129,2.0,10.0,63,0.00,,,0.02,Wunderground v.1.15,2013-05-30 20:10:00,
2013-05-30 16:15:00,76.5,64.3,29.96,SE,139,1.0,10.0,66,0.00,,,0.02,Wunderground v.1.15,2013-05-30 20:15:00,
2013-05-30 16:20:00,76.1,63.5,29.95,SE,144,2.0,2.0,65,0.00,,,0.02,Wunderground v.1.15,2013-05-30 20:20:00,
2013-05-30 16:25:00,76.3,63.7,29.95,ENE,68,2.0,2.0,65,0.00,,,0.02,Wunderground v.1.15,2013-05-30 20:25:00,
2013-05-30 16:30:00,76.7,63.6,29.95,SE,129,1.0,1.0,64,0.00,,,0.02,Wunderground v.1.15,2013-05-30 20:30:00,
2013-05-30 16:35:00,77.1,63.1,29.95,SSE,165,0.0,1.0,62,0.00,,,0.02,Wunderground v.1.15,2013-05-30 20:35:00,
2013-05-30 16:45:00,76.9,62.9,29.95,SE,145,1.0,1.0,62,0.00,,,0.02,Wunderground v.1.15,2013-05-30 20:45:00,
2013-05-30 16:50:00,76.2,61.8,29.95,SSE,167,2.0,2.0,61,0.00,,,0.02,Wunderground v.1.15,2013-05-30 20:50:00,
2013-05-30 16:55:00,75.7,61.8,29.95,SSE,162,2.0,2.0,62,0.00,,,0.02,Wunderground v.1.15,2013-05-30 20:55:00,
2013-05-30 17:00:00,74.9,61.5,29.95,SSE,153,2.0,2.0,63,0.00,,,0.02,Wunderground v.1.15,2013-05-30 21:00:00,
2013-05-30 17:05:00,74.9,61.9,29.95,ESE,113,2.0,8.0,64,0.00,,,0.02,Wunderground v.1.15,2013-05-30 21:05:00,
2013-05-30 17:15:00,75.2,61.7,29.95,SSE,150,2.0,8.0,63,0.00,,,0.02,Wunderground v.1.15,2013-05-30 21:15:00,
2013-05-30 17:20:00,75.2,61.7,29.95,SSE,155,1.0,1.0,63,0.00,,,0.02,Wunderground v.1.15,2013-05-30 21:20:00,
2013-05-30 17:25:00,75.0,61.5,29.95,ESE,103,2.0,2.0,63,0.00,,,0.02,Wunderground v.1.15,2013-05-30 21:25:00,
2013-05-30 17:30:00,74.4,60.5,29.95,SE,128,2.0,2.0,62,0.00,,,0.02,Wunderground v.1.15,2013-05-30 21:30:00,
2013-05-30 17:35:00,74.0,60.6,29.95,SE,129,2.0,4.0,63,0.00,,,0.02,Wunderground v.1.15,2013-05-30 21:35:00,
2013-05-30 17:45:00,73.5,60.6,29.95,ESE,115,2.0,4.0,64,0.00,,,0.02,Wunderground v.1.15,2013-05-30 21:45:00,
2013-05-30 17:50:00,73.1,60.6,29.95,ESE,122,1.0,2.0,65,0.00,,,0.02,Wunderground v.1.15,2013-05-30 21:50:00,
2013-05-30 17:55:00,72.5,60.1,29.95,SE,135,1.0,3.0,65,0.00,,,0.02,Wunderground v.1.15,2013-05-30 21:55:00,
2013-05-30 18:00:00,72.2,60.2,29.95,SSE,158,2.0,2.0,66,0.00,,,0.02,Wunderground v.1.15,2013-05-30 22:00:00,
2013-05-30 18:05:00,71.9,59.9,29.95,SE,143,1.0,3.0,66,0.00,,,0.02,Wunderground v.1.15,2013-05-30 22:05:00,
2013-05-30 18:10:00,71.6,59.6,29.95,SSE,147,2.0,2.0,66,0.00,,,0.02,Wunderground v.1.15,2013-05-30 22:10:00,
2013-05-30 18:20:00,71.6,60.5,29.95,SE,128,0.0,7.0,68,0.00,,,0.02,Wunderground v.1.15,2013-05-30 22:20:00,
2013-05-30 18:30:00,71.7,61.0,29.95,SE,140,0.0,0.0,69,0.00,,,0.02,Wunderground v.1.15,2013-05-30 22:30:00,
2013-05-30 18:35:00,71.7,61.4,29.95,SE,143,0.0,0.0,70,0.00,,,0.02,Wunderground v.1.15,2013-05-30 22:35:00,
2013-05-30 18:40:00,71.5,61.6,29.95,SE,143,0.0,0.0,71,0.00,,,0.02,Wunderground v.1.15,2013-05-30 22:40:00,
2013-05-30 18:45:00,71.5,61.2,29.95,SSE,165,0.0,0.0,70,0.00,,,0.02,Wunderground v.1.15,2013-05-30 22:45:00,
2013-05-30 18:55:00,70.8,60.5,29.96,SSE,165,0.0,0.0,70,0.00,,,0.02,Wunderground v.1.15,2013-05-30 22:55:00,
2013-05-30 19:00:00,70.6,60.7,29.96,South,172,0.0,0.0,71,0.00,,,0.02,Wunderground v.1.15,2013-05-30 23:00:00,
2013-05-30 19:05:00,70.3,60.8,29.96,South,172,0.0,10.0,72,0.00,,,0.02,Wunderground v.1.15,2013-05-30 23:05:00,
2013-05-30 19:10:00,69.9,61.2,29.96,SE,141,0.0,10.0,74,0.00,,,0.02,Wunderground v.1.15,2013-05-30 23:10:00,
2013-05-30 19:15:00,69.5,60.5,29.96,SSE,162,0.0,10.0,73,0.00,,,0.02,Wunderground v.1.15,2013-05-30 23:15:00,
2013-05-30 19:20:00,69.2,60.6,29.96,SSE,162,0.0,10.0,74,0.00,,,0.02,Wunderground v.1.15,2013-05-30 23:20:00,
2013-05-30 19:25:00,68.8,60.2,29.96,SSE,162,0.0,10.0,74,0.00,,,0.02,Wunderground v.1.15,2013-05-30 23:25:00,
2013-05-30 19:30:00,68.4,60.2,29.96,SSE,162,0.0,0.0,75,0.00,,,0.02,Wunderground v.1.15,2013-05-30 23:30:00,
2013-05-30 19:35:00,68.0,59.8,29.97,SSE,162,0.0,0.0,75,0.00,,,0.02,Wunderground v.1.15,2013-05-30 23:35:00,
2013-05-30 19:40:00,67.8,60.0,29.97,SSE,162,0.0,0.0,76,0.00,,,0.02,Wunderground v.1.15,2013-05-30 23:40:00,
2013-05-30 19:45:00,67.6,59.8,29.97,SSE,162,0.0,0.0,76,0.00,,,0.02,Wunderground v.1.15,2013-05-30 23:45:00,
2013-05-30 19:50:00,67.5,60.0,29.97,SSE,162,0.0,0.0,77,0.00,,,0.02,Wunderground v.1.15,2013-05-30 23:50:00,
2013-05-30 20:00:00,67.0,60.3,29.97,SSE,162,0.0,0.0,79,0.00,,,0.02,Wunderground v.1.15,2013-05-31 00:00:00,
2013-05-30 20:05:00,66.7,60.3,29.97,SSE,162,0.0,0.0,80,0.00,,,0.02,Wunderground v.1.15,2013-05-31 00:05:00,
2013-05-30 20:10:00,66.3,59.9,29.97,SSE,162,0.0,0.0,80,0.00,,,0.02,Wunderground v.1.15,2013-05-31 00:10:00,
2013-05-30 20:15:00,66.0,59.7,29.97,SSE,162,0.0,0.0,80,0.00,,,0.02,Wunderground v.1.15,2013-05-31 00:15:00,
2013-05-30 20:20:00,65.6,59.6,29.97,SSE,162,0.0,0.0,81,0.00,,,0.02,Wunderground v.1.15,2013-05-31 00:20:00,
2013-05-30 20:25:00,65.2,59.2,29.97,SSE,162,0.0,0.0,81,0.00,,,0.02,Wunderground v.1.15,2013-05-31 00:25:00,
2013-05-30 20:35:00,64.7,59.4,29.98,SSE,162,0.0,0.0,83,0.00,,,0.02,Wunderground v.1.15,2013-05-31 00:35:00,
2013-05-30 20:40:00,64.5,58.9,29.98,SSE,162,0.0,0.0,82,0.00,,,0.02,Wunderground v.1.15,2013-05-31 00:40:00,
2013-05-30 20:45:00,64.3,59.0,29.98,SSE,162,0.0,0.0,83,0.00,,,0.02,Wunderground v.1.15,2013-05-31 00:45:00,
2013-05-30 20:50:00,64.2,59.3,29.98,SSE,162,0.0,0.0,84,0.00,,,0.02,Wunderground v.1.15,2013-05-31 00:50:00,
2013-05-30 20:55:00,64.0,59.1,29.98,SSE,162,0.0,0.0,84,0.00,,,0.02,Wunderground v.1.15,2013-05-31 00:55:00,
2013-05-30 21:05:00,63.8,59.2,29.98,SSE,162,0.0,0.0,85,0.00,,,0.02,Wunderground v.1.15,2013-05-31 01:05:00,
2013-05-30 21:10:00,63.8,58.9,29.98,SSE,162,0.0,0.0,84,0.00,,,0.02,Wunderground v.1.15,2013-05-31 01:10:00,
2013-05-30 21:15:00,63.9,59.0,29.99,SSE,162,0.0,0.0,84,0.00,,,0.02,Wunderground v.1.15,2013-05-31 01:15:00,
2013-05-30 21:20:00,63.8,59.2,29.98,SSE,162,0.0,0.0,85,0.00,,,0.02,Wunderground v.1.15,2013-05-31 01:20:00,
2013-05-30 21:25:00,63.6,59.0,29.99,SSE,162,0.0,0.0,85,0.00,,,0.02,Wunderground v.1.15,2013-05-31 01:25:00,
2013-05-30 21:30:00,63.3,58.7,29.99,SSE,162,0.0,0.0,85,0.00,,,0.02,Wunderground v.1.15,2013-05-31 01:30:00,
2013-05-30 21:40:00,63.0,59.1,29.99,SSE,162,0.0,0.0,87,0.00,,,0.02,Wunderground v.1.15,2013-05-31 01:40:00,
2013-05-30 21:45:00,62.8,58.9,29.99,SSE,162,0.0,0.0,87,0.00,,,0.02,Wunderground v.1.15,2013-05-31 01:45:00,
2013-05-30 21:50:00,62.7,58.8,29.99,SSE,162,0.0,0.0,87,0.00,,,0.02,Wunderground v.1.15,2013-05-31 01:50:00,
2013-05-30 21:55:00,62.8,59.2,29.99,SSE,162,0.0,0.0,88,0.00,,,0.02,Wunderground v.1.15,2013-05-31 01:55:00,
2013-05-30 22:00:00,62.9,59.3,29.99,SSE,162,0.0,0.0,88,0.00,,,0.02,Wunderground v.1.15,2013-05-31 02:00:00,
2013-05-30 22:10:00,63.5,59.9,29.99,SSE,162,0.0,0.0,88,0.00,,,0.02,Wunderground v.1.15,2013-05-31 02:10:00,
2013-05-30 22:15:00,63.8,60.2,29.99,SSE,162,0.0,0.0,88,0.00,,,0.02,Wunderground v.1.15,2013-05-31 02:15:00,
2013-05-30 22:20:00,64.0,60.4,29.99,SSE,162,0.0,0.0,88,0.00,,,0.02,Wunderground v.1.15,2013-05-31 02:20:00,
2013-05-30 22:25:00,64.5,60.5,29.99,SSE,162,0.0,0.0,87,0.00,,,0.02,Wunderground v.1.15,2013-05-31 02:25:00,
2013-05-30 22:30:00,64.8,60.5,29.99,SSE,162,0.0,0.0,86,0.00,,,0.02,Wunderground v.1.15,2013-05-31 02:30:00,
2013-05-30 22:35:00,64.8,60.5,30.00,SSE,162,0.0,0.0,86,0.00,,,0.02,Wunderground v.1.15,2013-05-31 02:35:00,
2013-05-30 22:45:00,63.3,58.4,30.00,SSE,162,0.0,0.0,84,0.00,,,0.02,Wunderground v.1.15,2013-05-31 02:45:00,
2013-05-30 22:50:00,62.6,58.0,30.00,SSE,162,0.0,0.0,85,0.00,,,0.02,Wunderground v.1.15,2013-05-31 02:50:00,
2013-05-30 22:55:00,62.2,58.3,30.00,SSE,162,0.0,0.0,87,0.00,,,0.02,Wunderground v.1.15,2013-05-31 02:55:00,
2013-05-30 23:00:00,61.9,58.3,30.00,SSE,162,0.0,0.0,88,0.00,,,0.02,Wunderground v.1.15,2013-05-31 03:00:00,
2013-05-30 23:05:00,62.0,59.0,30.00,SSE,162,0.0,0.0,90,0.00,,,0.02,Wunderground v.1.15,2013-05-31 03:05:00,
2013-05-30 23:15:00,62.5,59.5,30.00,SSE,162,0.0,0.0,90,0.00,,,0.02,Wunderground v.1.15,2013-05-31 03:15:00,
2013-05-30 23:20:00,62.5,59.5,30.00,SE,126,0.0,1.0,90,0.00,,,0.02,Wunderground v.1.15,2013-05-31 03:20:00,
2013-05-30 23:25:00,61.7,58.4,30.00,SSE,153,1.0,1.0,89,0.00,,,0.02,Wunderground v.1.15,2013-05-31 03:25:00,
2013-05-30 23:30:00,61.5,58.5,30.00,SSE,152,0.0,0.0,90,0.00,,,0.02,Wunderground v.1.15,2013-05-31 03:30:00,
2013-05-30 23:35:00,61.4,58.4,30.00,SSE,152,0.0,0.0,90,0.00,,,0.02,Wunderground v.1.15,2013-05-31 03:35:00,
2013-05-30 23:40:00,61.5,58.5,30.00,SSE,152,0.0,0.0,90,0.00,,,0.02,Wunderground v.1.15,2013-05-31 03:40:00,
2013-05-30 23:50:00,61.9,58.9,30.00,SSE,152,0.0,0.0,90,0.00,,,0.02,Wunderground v.1.15,2013-05-31 03:50:00,
2013-05-30 23:55:00,62.1,59.1,30.00,SSE,152,0.0,0.0,90,0.00,,,0.02,Wunderground v.1.15,2013-05-31 03:55:00,